Location: Unspecified
(0.0000°N, 0.0000°E)
Time: 14:04:40
(UTC+00:00)

N. Korean satellite - Pass Details

Date: 20 September 2019
Orbit: 455 x 509 km, 97.2° (Epoch: 17 September)

Event Time Altitude Azimuth Distance (km) Brightness Sun altitude
Rises 05:09:47 0° 26° (NNE) 2,465 10.5 -11.0°
Reaches altitude 10° 05:11:56 10° 36° (NE) 1,601 9.7 -10.4°
Maximum altitude 05:15:03 32° 101° (ESE) 812 8.5 -9.6°
Drops below altitude 10° 05:18:12 10° 166° (SSE) 1,631 9.4 -8.9°
Sets 05:20:25 0° 176° (S) 2,521 10.2 -8.3°
